Weather History for Dublin, Ireland

Change the Weather History Date:

Sunday, August 4, 2013

  Actual Average Record
Temperature  
Mean Temperature 59 °F -  
Max Temperature 66 °F 65 °F 69 °F (1998)
Min Temperature 52 °F 52 °F 46 °F (1996)
Degree Days  
Heating Degree Days 6    
Growing Degree Days 9 (Base 50)    
Moisture  
Dew Point 56 °F    
Average Humidity 86    
Maximum Humidity 100    
Minimum Humidity 62    
Precipitation  
Precipitation 0.20 in 0.09 in - ()
Sea Level Pressure  
Sea Level Pressure 29.89 in    
Wind  
Wind Speed 7 mph ()    
Max Wind Speed 14 mph    
Max Gust Speed -    
Visibility 6.1 miles    
Events Rain    
Averages and records for this station are not official NWS values.
T = Trace of Precipitation, MM = Missing Value Source: Averaged Metar Reports

Daily Weather History Graph

Daily Weather History Graph

Search for Another Location

Airport:

Trip Planner

Search our weather history database for the weather conditions in past years. The results will help you decide how hot, cold, wet, or windy it might be!

Date:

Astronomy

Aug. 04, 2013 Rise Set
Actual Time 5:46 AM IST 9:15 PM IST
Civil Twilight 5:03 AM IST 9:57 PM IST
Nautical Twilight 4:05 AM IST 10:55 PM IST
Astronomical Twilight 2:35 AM IST 12:21 AM IST
Moon 3:31 AM IST (8/4) 7:29 PM IST (8/4)
Length of Visible Light 16h 53m
Length of Day
15h 28m
Waning Crescent, 6% of the Moon is Illuminated
Aug 4
Waning Crescent
Aug 6
New
Aug 14
First Quarter
Aug 21
Full
Aug 28
Last Quarter

Hourly Weather History & Observations

Time (IST) Temp. Dew Point Humidity Pressure Visibility Wind Dir Wind Speed Gust Speed Precip Events Conditions
12:00 AM 57.2 °F 53.6 °F 88% 29.92 in 6.2 mi South 8.1 mph - N/A   Mostly Cloudy
12:30 AM 57.2 °F 51.8 °F 82% 29.89 in 6.2 mi SSW 12.7 mph - N/A   Mostly Cloudy
1:00 AM 57 °F 53 °F 81% 29.90 in 19 mi SSW 11.2 mph - - Rain Light Rain Showers
1:00 AM 57.2 °F 53.6 °F 88% 29.89 in 6.2 mi SSW 9.2 mph - N/A   Mostly Cloudy
1:30 AM 57.2 °F 53.6 °F 88% 29.89 in 6.2 mi SSW 10.4 mph - N/A   Mostly Cloudy
2:00 AM 55.4 °F 53.6 °F 94% 29.89 in 6.2 mi SW 10.4 mph - N/A   Scattered Clouds
2:30 AM 55.4 °F 53.6 °F 94% 29.89 in 6.2 mi SW 8.1 mph - N/A   Scattered Clouds
3:00 AM 55.4 °F 53.6 °F 94% 29.89 in 6.2 mi WSW 8.1 mph - N/A   Scattered Clouds
3:30 AM 55.4 °F 53.6 °F 94% 29.89 in 6.2 mi SW 4.6 mph - N/A   Scattered Clouds
4:00 AM 53.6 °F 53.6 °F 100% 29.89 in 6.2 mi SW 2.3 mph - N/A   Scattered Clouds
4:30 AM 53.6 °F 51.8 °F 94% 29.89 in 6.2 mi Variable 2.3 mph - N/A   Partly Cloudy
5:00 AM 51.8 °F 51.8 °F 100% 29.89 in 6.2 mi South 4.6 mph - N/A   Partly Cloudy
5:30 AM 53.6 °F 51.8 °F 94% 29.89 in 6.2 mi SSW 6.9 mph - N/A   Partly Cloudy
6:00 AM 53.6 °F 51.8 °F 94% 29.89 in 6.2 mi SSW 5.8 mph - N/A   Partly Cloudy
6:30 AM 53.6 °F 51.8 °F 94% 29.89 in 6.2 mi SSW 4.6 mph - N/A   Partly Cloudy
7:00 AM 55 °F 53 °F 90% 29.91 in 25 mi SSW 6.7 mph - -   Scattered Clouds
7:00 AM 55.4 °F 53.6 °F 94% 29.89 in 6.2 mi SW 6.9 mph - N/A   Partly Cloudy
7:30 AM 57.2 °F 53.6 °F 88% 29.92 in 6.2 mi SSW 6.9 mph - N/A   Partly Cloudy
8:00 AM 59.0 °F 55.4 °F 88% 29.92 in 6.2 mi SW 8.1 mph - N/A   Partly Cloudy
8:30 AM 59.0 °F 55.4 °F 88% 29.92 in 6.2 mi SW 9.2 mph - N/A   Partly Cloudy
9:00 AM 60.8 °F 55.4 °F 82% 29.92 in 6.2 mi SW 8.1 mph - N/A   Scattered Clouds
9:30 AM 62.6 °F 53.6 °F 72% 29.92 in 6.2 mi SW 8.1 mph - N/A   Mostly Cloudy
10:00 AM 62.6 °F 55.4 °F 77% 29.92 in 6.2 mi SW 8.1 mph - N/A   Mostly Cloudy
10:30 AM 62.6 °F 53.6 °F 72% 29.92 in 6.2 mi SSW 6.9 mph - N/A   Mostly Cloudy
11:00 AM 62.6 °F 53.6 °F 72% 29.92 in 6.2 mi South 5.8 mph - N/A   Mostly Cloudy
11:30 AM 64.4 °F 55.4 °F 73% 29.92 in 6.2 mi SE 6.9 mph - N/A   Mostly Cloudy
12:00 PM 64.4 °F 53.6 °F 68% 29.92 in 6.2 mi SSE 5.8 mph - N/A   Mostly Cloudy
12:30 PM 66.2 °F 53.6 °F 64% 29.89 in 6.2 mi Variable 3.5 mph - N/A   Mostly Cloudy
1:00 PM 67 °F 57 °F 62% 29.91 in 28 mi SE 8.9 mph - -   Partly Cloudy
1:00 PM 66.2 °F 57.2 °F 73% 29.89 in 6.2 mi SE 9.2 mph - N/A   Mostly Cloudy
1:30 PM 66.2 °F 57.2 °F 73% 29.89 in 6.2 mi SE 11.5 mph - N/A   Mostly Cloudy
2:00 PM 64.4 °F 59.0 °F 83% 29.89 in 6.2 mi ESE 11.5 mph - N/A   Mostly Cloudy
2:30 PM 62.6 °F 57.2 °F 82% 29.89 in 6.2 mi SE 13.8 mph - N/A   Mostly Cloudy
3:00 PM 64.4 °F 59.0 °F 83% 29.89 in 6.2 mi SE 13.8 mph - N/A   Mostly Cloudy
3:30 PM 66.2 °F 59.0 °F 78% 29.86 in 6.2 mi SE 13.8 mph - N/A   Mostly Cloudy
4:00 PM 64.4 °F 59.0 °F 83% 29.86 in 6.2 mi ESE 12.7 mph - N/A   Mostly Cloudy
4:30 PM 62.6 °F 59.0 °F 88% 29.86 in 6.2 mi ESE 12.7 mph - N/A   Mostly Cloudy
5:00 PM 64.4 °F 59.0 °F 83% 29.86 in 6.2 mi SE 10.4 mph - N/A   Mostly Cloudy
5:30 PM 62.6 °F 57.2 °F 82% 29.86 in 6.2 mi ESE 6.9 mph - N/A   Mostly Cloudy
6:00 PM 62.6 °F 59.0 °F 88% 29.86 in 6.2 mi ESE 8.1 mph - N/A   Mostly Cloudy
6:30 PM 62.6 °F 59.0 °F 88% 29.86 in 6.2 mi ESE 8.1 mph - N/A   Mostly Cloudy
7:00 PM 62 °F 59 °F 87% 29.86 in 11 mi East 8.9 mph - - Rain Light Rain Showers
7:00 PM 62.6 °F 59.0 °F 88% 29.86 in 6.2 mi East 8.1 mph - N/A   Mostly Cloudy
7:30 PM 60.8 °F 59.0 °F 94% 29.86 in 6.2 mi East 6.9 mph - N/A   Mostly Cloudy
8:00 PM 60.8 °F 59.0 °F 94% 29.86 in 6.2 mi ESE 6.9 mph - N/A   Mostly Cloudy
8:30 PM 60.8 °F 57.2 °F 88% 29.83 in 5.6 mi East 6.9 mph - N/A   Mostly Cloudy
9:00 PM 59.0 °F 57.2 °F 94% 29.86 in 1.9 mi East 5.8 mph - N/A   Mostly Cloudy
9:30 PM 59.0 °F 57.2 °F 94% 29.86 in 1.0 mi ESE 5.8 mph - N/A   Mostly Cloudy
10:00 PM 59.0 °F 59.0 °F 100% 29.86 in 0.9 mi East 4.6 mph - N/A Rain Light Rain
10:30 PM 59.0 °F 59.0 °F 100% 29.86 in 3.7 mi ESE 4.6 mph - N/A Rain Light Rain
11:00 PM 59.0 °F 59.0 °F 100% 29.86 in 5.0 mi Variable 2.3 mph - N/A Rain Rain
11:30 PM 59.0 °F 59.0 °F 100% 29.86 in 5.0 mi ESE 2.3 mph - N/A Rain Rain